Overview Statistics Trail Chart Weather Telemetry Raw packets
 

This is the latest recevied weather packets stored in our database for station/object NR0A-4. If no packets are shown the sender has not sent any weather packets the latest 10 day(s).

<< 78 79 80 81 82 83 84 >>
Time Temp. Humidity Pressure Rain* Wind** Luminosity Snow
1788095404 21.67° C 82% 1008.8 hPa 0 mm - 53 W/m² -
1788095104 21.67° C 83% 1008.9 hPa 0 mm - 37 W/m² -
1788094804 21.67° C 83% 1009 hPa 0 mm - 32 W/m² -
1788094504 21.67° C 82% 1009 hPa 0 mm - 25 W/m² -
1788094204 21.67° C 82% 1008.8 hPa 0 mm - 19 W/m² -
1788093904 22.22° C 82% 1008.9 hPa 0 mm - 18 W/m² -
1788093604 22.22° C 81% 1008.7 hPa 0 mm - 16 W/m² -
1788093305 22.22° C 81% 1008.5 hPa 0 mm - 12 W/m² -
1788093004 22.22° C 81% 1008.3 hPa 0 mm - 11 W/m² -
1788092704 22.22° C 81% 1008.1 hPa 0 mm - 9 W/m² -
1788092404 22.22° C 81% 1008.1 hPa 0 mm - 7 W/m² -
1788092104 22.22° C 81% 1008.1 hPa 0 mm - 7 W/m² -
1788091804 22.22° C 80% 1008.1 hPa 0 mm - 0 W/m² -
1788091504 22.78° C 80% 1008 hPa 0 mm - 0 W/m² -
1788091204 22.78° C 80% 1008 hPa 0 mm - 0 W/m² -
1788090904 22.78° C 79% 1008 hPa 0 mm - 0 W/m² -
1788090604 22.78° C 79% 1007.9 hPa 0 mm - 0 W/m² -
1788090305 22.78° C 78% 1007.7 hPa 0 mm - 0 W/m² -
1788090004 22.78° C 78% 1007.4 hPa 0 mm - 0 W/m² -
1788089704 23.33° C 78% 1006.8 hPa 0 mm - 0 W/m² -
1788089404 23.33° C 77% 1006.5 hPa 0 mm - 0 W/m² -
1788089104 23.33° C 77% 1006.3 hPa 0 mm - 0 W/m² -
1788088804 23.33° C 76% 1006.3 hPa 0 mm - 0 W/m² -
1788088504 23.33° C 77% 1006.2 hPa 0 mm - 0 W/m² -
1788088205 23.33° C 77% 1006 hPa 0 mm - 0 W/m² -

* Rain latest hour (hover to see other rain measurements)
** Current wind speed in m/s (hover to see current wind gust speed)